sat.trackr.live / text

‹ back to catalog

GECAM-B

NORAD 47235 · 2020-094B

PAYLOAD ACTIVE UNKNOWN

§ Identity

Operator
Country
PRC
Launch date
2020-12-09
Launch site
XICLF
Launch vehicle
Mass (kg)
RCS (m²)

External: N2YO · Heavens-Above · Gunter

§ Orbital elements

Epoch: 2026-06-17T05:40:34.924512Z

Period
95.86 min
Inclination
28.9978°
Eccentricity
0.0010587
Mean motion
15.02194018 rev/d
Perigee alt
552.8 km
Apogee alt
567.5 km
Semi-major
6,938.3 km
B*
1.4016e-4
RAAN
15.0776°
Arg perigee
333.3126°
Mean anomaly
26.6927°
Rev number
30,173

§ Raw data

GECAM-B1 47235U 20094B   26168.23651533  .00002046  00000+0  14016-3 0  99932 47235  28.9978  15.0776 0010587 333.3126  26.6927 15.02194018301731

JSON: /api/v1/satellites/47235 · /tle

For live sub-satellite position, see the globe view (requires WebGL).

§ Visibility from observer

Set your observer location to see the next 7 days of passes ≥ 10°. The values pass through the URL so the page stays shareable.

No JS? Fill the form by hand. The geolocation button needs JavaScript.